Terminal Aerodrome Forecast
Issued by NWS Wichita, KS

Home | Current Version | Previous Version | Graphics & Text | Print | Product List | Glossary On
Versions: 1 2 3 4 5 6 7 8 9 10 11 12 13 14 15 16 17 18
000
FTUS43 KICT 180500
TAFICT
TAF
KICT 180522Z 1806/1906 15004KT 4SM BR FEW200
     FM181400 17009KT P6SM SCT025
     FM181700 17015G22KT P6SM SCT035=

USA.gov is the U.S. government's official web portal to all federal, state and local government web resources and services.